(Global) Earthquake at 2022-12-03 09:49:41 in JAVA, INDONESIA Latitude -7.50 Longitude 107.57 , at a depth of 118 km Magnitude 6.7
Global alerts
Previous warnings
Time Mag Region Lat Lng Adancime Sursa Raport
2022-12-03 09:49:41 6.7 JAVA, INDONESIA -7.50 107.57 118 EMSC Detalii
2022-11-30 15:17:39 5.6 SOUTHERN IRAN 26.46 55.47 10 EMSC Detalii
2022-11-29 23:45:07 5.9 ALBERTA, CANADA 56.24 -116.52 10 EMSC Detalii
2022-11-28 02:51:27 5.7 AZORES ISLANDS REGION 37.20 -32.18 10 EMSC Detalii
2022-11-26 06:05:35 5.6 MARIANA ISLANDS REGION 18.73 147.06 10 EMSC Detalii
2022-11-25 13:46:54 5.8 SOLOMON ISLANDS -9.84 159.82 15 EMSC Detalii
2022-11-23 01:08:14 6.0 WESTERN TURKEY 40.84 31.02 2 EMSC Detalii
2022-11-22 21:13:06 5.6 SOUTH SANDWICH ISLANDS REGION -60.01 -27.97 60 EMSC Detalii
2022-11-22 16:24:45 5.6 BANDA SEA -5.67 130.91 80 EMSC Detalii
2022-11-22 02:37:59 6.1 SOLOMON ISLANDS -9.86 159.57 2 EMSC Detalii
2022-11-22 02:07:59 5.9 SOLOMON ISLANDS -9.71 159.82 44 EMSC Detalii
2022-11-22 02:07:55 6.0 SOLOMON ISLANDS -9.67 159.84 10 EMSC Detalii
2022-11-22 02:03:08 7.2 SOLOMON ISLANDS -9.89 159.49 2 EMSC Detalii
2022-11-21 16:30:25 5.6 BOUGAINVILLE REGION, P.N.G. -5.85 154.43 124 EMSC Detalii
2022-11-20 23:25:01 5.6 CRETE, GREECE 35.76 26.45 60 EMSC Detalii
2022-11-18 13:37:07 6.6 SOUTHWEST OF SUMATRA, INDONESIA -4.90 100.69 10 EMSC Detalii
2022-11-17 11:21:37 5.6 SOUTHEAST OF LOYALTY ISLANDS -22.33 170.38 70 EMSC Detalii
2022-11-16 22:26:55 5.6 SANTA CRUZ ISLANDS -11.78 166.55 151 EMSC Detalii
2022-11-14 08:08:22 5.8 NEAR S. COAST OF HONSHU, JAPAN 33.92 137.62 400 EMSC Detalii
2022-11-14 05:04:10 5.8 SOUTH OF FIJI ISLANDS -26.06 178.21 584 EMSC Detalii
2022-11-13 02:24:03 6.3 BIO-BIO, CHILE -37.54 -73.50 32 EMSC Detalii
2022-11-13 02:24:01 6.0 OFFSHORE BIO-BIO, CHILE -37.56 -73.82 80 EMSC Detalii
2022-11-12 07:09:15 6.5 FIJI REGION -20.13 -178.29 597 EMSC Detalii
2022-11-12 07:09:14 7.0 FIJI REGION -20.14 -178.30 590 EMSC Detalii
2022-11-11 10:48:47 7.1 TONGA REGION -19.33 -172.22 40 EMSC Detalii
2022-11-09 10:14:33 6.1 SOUTH OF FIJI ISLANDS -25.68 178.32 628 EMSC Detalii
2022-11-09 09:51:01 6.8 SOUTH OF FIJI ISLANDS -26.23 178.27 611 EMSC Detalii
2022-11-09 09:38:41 6.5 SOUTH OF FIJI ISLANDS -26.17 178.30 601 EMSC Detalii
2022-11-09 06:07:26 5.7 CENTRAL ITALY 43.95 13.35 10 EMSC Detalii
2022-11-08 20:27:23 5.6 NEPAL 29.40 81.16 10 EMSC Detalii
Regional Alerts
Local previous warnings
Time Mag Region Lat Lng Adancime Details
2022-11-23 01:08:15 UTC Mw 6.1 WESTERN TURKEY 40.82 30.99 11 f -
2022-11-03 04:50:25 UTC Mw 5.1 ROMANIA 45.49 26.52 149 f -
2022-09-27 14:08:34 UTC Mw 5.3 EASTERN TURKEY 40.72 42.89 10 f -
2022-02-13 18:25:56 UTC Mw 5.4 ARMENIA 41.14 43.99 10 f -
2021-11-19 12:40:53 UTC Mw 5.2 EASTERN TURKEY 39.81 41.92 5 f -
2019-09-26 10:59:25 UTC Mw 5.7 WESTERN TURKEY 40.87 28.19 7 f -
2018-10-28 00:38:10 UTC Mw 5.5 ROMANIA 45.60 26.40 151 f -
2017-05-11 17:58:01 UTC mb 5.0 EASTERN TURKEY 40.07 40.71 3 f -
2016-12-27 23:20:56 UTC Mw 5.6 ROMANIA 45.72 26.61 91 f -
2016-10-15 08:18:33 UTC Mw 5.1 BLACK SEA 42.20 30.69 10 -
2016-09-23 23:11:20 UTC Mw 5.7 ROMANIA 45.71 26.62 92 f -
2014-11-22 19:14:17 UTC Mw 5.6 ROMANIA 45.87 27.16 39 f -
2013-10-06 01:37:21 UTC Mw 5.3 ROMANIA 45.64 26.69 134 -
2013-05-28 00:09:52 UTC mb 5.2 GEORGIA (SAK'ART'VELO) 43.22 41.58 2 -
2012-12-25 22:44:32 UTC Mw 5.4 BLACK SEA, OFFSHORE GEORGIA 42.54 40.94 2 -
2012-12-23 13:31:40 UTC Mw 5.7 BLACK SEA, OFFSHORE GEORGIA 42.58 40.98 10 -
2012-06-07 20:54:26 UTC Mw 5.1 WESTERN TURKEY 40.85 27.92 14 f -
2011-09-22 03:22:36 UTC Mw 5.5 EASTERN TURKEY 39.79 38.84 5 -
2011-07-25 17:57:21 UTC Mw 5.0 WESTERN TURKEY 40.80 27.75 16 f -
2011-01-19 09:17:49 UTC mb 5.3 GEORGIA (SAK'ART'VELO) 42.01 42.60 2 -
2010-08-12 02:23:04 UTC Mw 4.5 WESTERN TURKEY 39.66 27.61 2 -
2009-09-07 22:41:36 UTC Mw 5.9 GEORGIA (SAK'ART'VELO) 42.66 43.42 10 -
2009-04-25 17:18:48 UTC mb 5.3 ROMANIA 45.70 26.63 96 -
2008-05-07 08:00:21 UTC mb 5.0 UKRAINE 45.36 30.88 10 -
2006-02-06 04:08:00 UTC mb 5.0 GEORGIA (SAK'ART'VELO) 42.64 43.52 10 -
2005-12-13 12:14:44 UTC mb 5.0 ROMANIA 45.78 26.79 144 -
2005-06-18 15:16:40 UTC mb 5.0 ROMANIA 45.79 26.91 135 -
2005-05-14 01:53:20 UTC mb 5.1 ROMANIA 45.66 26.47 144 -
2004-10-27 20:34:32 UTC Mw 6.0 ROMANIA 45.83 26.77 76 -
2004-10-03 09:02:01 UTC mb 5.0 UKRAINE-ROMANIA BORDER REGION 45.16 29.09 2 -

Live Video Mangalia

Very Low Warning! (global)

Event report
2022-12-03 09:49:41 magnitude 6.7

Detalii (EMSC)

Very Low Warning! (local)

Weather data
Station Absolute Pressure (hPa) Int Temperature (C) Int Moisture (%) Ext Temperature (C) Ext Moisture (%) Wind speed (km / h) Wind Direction (degrees) Rainfall (mm)
Eforie AbsP InTmC InH% OTmpC OH% WKmh WDir TRNmm
Water level data - BLACK SEA

Mangalia

Denumire Valoare
Time 21 Jun 2016 07:32:06
Lev RAD(m) -7.69
Forecast30 (m) -7.7
Forecast300 (m) -7.7
Rms (m) 0.02
Alert Signal (m) 0
Alert (-) 0
Battery (V) 13.14
Panel (V) -7.7
Sensor Temp (C) 35.9
Temperature (C) 40.2

View Raw Data »

View Raw Plots »

Constanta

Name Value
Time 21 Jun 2016 07:32:06
Lev RAD(m) -7.69
Forecast30 (m) -7.7
Forecast300 (m) -7.7
Rms (m) 0.02
Alert Signal (m) 0
Alert (-) 0
Battery (V) 13.14
Panel (V) -7.7
Sensor Temp (C) 35.9
Temperature (C) 40.2

View Raw Data »

View Raw Plots »

View Plot »

Sulina

Name Value
Time 21 Jun 2016 07:32:06
Lev RAD(m) -7.69
Forecast30 (m) -7.7
Forecast300 (m) -7.7
Rms (m) 0.02
Alert Signal (m) 0
Alert (-) 0
Battery (V) 13.14
Panel (V) -7.7
Sensor Temp (C) 35.9
Temperature (C) 40.2

View Raw Data »

View Raw Plots »